Date String (YYYY-MM-DD hh:mm:ss) UTC,Instrument flags,Ambient pressure (hPa),Sample flow (lpm),Bypass flow (lpm),Sample temperature (°C),Ambient temperature (°C),ASC tube jacket temperature (°C),LED temperature (°C),Box temperature (°C),Sample RH (%),Mass concentration (μg/m³),Mass concentration (μg/m³)
DateTimeUTC,F1_M11,P_M11,Q1_M11,Q2_M11,T1_M11,T2_M11,T3_M11,T4_M11,T5_M11,U1_M11,X0_M11,X2_M11
2021-08-15 11:00:00,,0831.2,4.99,0.00,29.9,29.0,00.0,38.8,31.7,24.5,0027.86,0011.71
2021-08-15 11:01:00,,0831.1,5.01,0.00,29.9,29.1,00.0,38.8,31.7,24.6,0028.42,0011.57
2021-08-15 11:02:00,,0831.1,5.00,0.00,29.9,29.1,00.0,38.9,31.8,24.6,0028.15,0011.52
2021-08-15 11:03:00,,0831.2,5.00,0.00,29.9,29.1,00.0,38.9,31.8,24.5,0027.55,0011.44
2021-08-15 11:04:00,,0831.2,5.01,0.00,30.0,28.9,00.0,38.9,31.7,24.3,0027.45,0011.40
2021-08-15 11:05:00,,0831.2,4.99,0.00,29.9,27.2,00.0,38.9,31.3,24.2,0026.51,0011.45
2021-08-15 11:06:00,,0831.2,5.00,0.00,29.7,26.5,00.0,38.9,31.1,24.3,0025.76,0011.50
2021-08-15 11:07:00,,0831.2,5.01,0.00,29.7,26.7,00.0,38.9,31.2,24.5,0026.09,0011.53
2021-08-15 11:08:00,,0831.2,4.99,0.00,29.6,27.1,00.0,38.8,31.2,24.7,0025.25,0011.49
2021-08-15 11:09:00,,0831.2,5.01,0.00,29.6,27.4,00.0,38.8,31.2,24.7,0024.62,0011.36
2021-08-15 11:10:00,,0831.2,5.00,0.00,29.6,27.7,00.0,38.8,31.3,24.9,0024.42,0011.28
2021-08-15 11:11:00,,0831.2,5.00,0.00,29.6,27.9,00.0,38.8,31.3,25.0,0023.98,0011.24
2021-08-15 11:12:00,,0831.2,5.00,0.00,29.6,28.1,00.0,38.7,31.4,25.0,0023.56,0011.23
2021-08-15 11:13:00,,0831.2,5.00,0.00,29.6,28.3,00.0,38.7,31.4,25.0,0023.09,0011.21
2021-08-15 11:14:00,,0831.1,5.00,0.00,29.7,28.4,00.0,38.8,31.5,25.0,0022.56,0011.16
2021-08-15 11:15:00,,0831.2,5.00,0.00,29.7,28.5,00.0,38.8,31.5,24.9,0022.40,0011.17
2021-08-15 11:16:00,,0831.2,5.01,0.00,29.7,28.6,00.0,38.8,31.5,24.9,0022.24,0011.06
2021-08-15 11:17:00,,0831.2,4.99,0.00,29.8,28.7,00.0,38.8,31.6,24.9,0022.53,0010.95
2021-08-15 11:18:00,,0831.2,5.00,0.00,29.8,28.8,00.0,38.8,31.6,25.1,0022.39,0010.89
2021-08-15 11:19:00,,0831.2,5.01,0.00,29.8,28.8,00.0,38.8,31.7,25.1,0022.07,0010.76
2021-08-15 11:20:00,,0831.2,4.99,0.00,29.8,28.9,00.0,38.8,31.7,25.1,0022.48,0010.65
2021-08-15 11:21:00,,0831.2,5.01,0.00,29.9,29.0,00.0,38.8,31.7,25.0,0022.12,0010.52
2021-08-15 11:22:00,,0831.2,5.00,0.00,29.9,29.0,00.0,38.9,31.8,25.0,0021.79,0010.45
2021-08-15 11:23:00,,0831.2,4.99,0.00,29.9,29.1,00.0,38.9,31.8,24.9,0021.09,0010.36
2021-08-15 11:24:00,,0831.2,5.00,0.00,30.0,29.1,00.0,38.9,31.8,24.9,0020.97,0010.29
2021-08-15 11:25:00,,0831.2,4.99,0.00,30.0,28.6,00.0,38.9,31.7,24.8,0020.72,0010.25
2021-08-15 11:26:00,,0831.2,4.99,0.00,29.8,26.9,00.0,38.9,31.2,24.9,0020.57,0010.19
2021-08-15 11:27:00,,0831.2,5.00,0.00,29.7,26.4,00.0,38.9,31.1,25.0,0021.71,0010.18
2021-08-15 11:28:00,,0831.2,5.01,0.00,29.6,26.7,00.0,38.9,31.1,25.3,0021.42,0010.11
2021-08-15 11:29:00,,0831.2,5.00,0.00,29.6,27.1,00.0,38.8,31.2,25.3,0020.96,0010.00
2021-08-15 11:30:00,,0831.2,5.00,0.00,29.6,27.4,00.0,38.8,31.2,25.2,0021.03,0010.02
2021-08-15 11:31:00,,0831.2,4.99,0.00,29.6,27.7,00.0,38.8,31.3,25.2,0020.58,0010.12
2021-08-15 11:32:00,,0831.2,5.01,0.00,29.6,27.9,00.0,38.8,31.3,24.4,0021.11,0010.21
2021-08-15 11:33:00,,0831.2,4.99,0.00,29.6,28.1,00.0,38.8,31.4,24.4,0020.59,0010.25
2021-08-15 11:34:00,,0831.2,5.00,0.00,29.6,28.3,00.0,38.8,31.4,24.4,0020.32,0010.24
2021-08-15 11:35:00,,0831.2,5.01,0.00,29.7,28.4,00.0,38.8,31.4,24.5,0019.92,0010.27
2021-08-15 11:36:00,,0831.2,5.00,0.00,29.7,28.5,00.0,38.8,31.4,24.6,0020.15,0010.32
2021-08-15 11:37:00,,0831.2,5.01,0.00,29.7,28.6,00.0,38.8,31.5,24.2,0020.47,0010.31
2021-08-15 11:38:00,,0831.1,5.00,0.00,29.7,28.6,00.0,38.8,31.5,24.2,0019.72,0010.25
2021-08-15 11:39:00,,0831.2,5.00,0.00,29.8,28.7,00.0,38.8,31.5,23.5,0019.35,0010.27
2021-08-15 11:40:00,,0831.2,4.99,0.00,29.8,28.8,00.0,38.8,31.6,23.6,0020.41,0010.30
2021-08-15 11:41:00,,0831.2,5.01,0.00,29.8,28.8,00.0,38.8,31.6,23.0,0021.03,0010.32
2021-08-15 11:42:00,,0831.2,4.99,0.00,29.8,28.8,00.0,38.8,31.6,22.6,0020.95,0010.18
2021-08-15 11:43:00,,0831.2,5.02,0.00,29.9,28.9,00.0,38.9,31.7,21.3,0020.39,0010.11
2021-08-15 11:44:00,,0831.3,5.00,0.00,29.9,28.9,00.0,38.9,31.7,21.5,0020.63,0010.08
2021-08-15 11:45:00,,0831.4,4.98,0.00,29.9,29.0,00.0,38.9,31.7,21.3,0020.81,0010.11
2021-08-15 11:46:00,,0831.3,5.01,0.00,29.9,29.0,00.0,38.9,31.7,21.0,0020.70,0010.08
2021-08-15 11:47:00,,0831.4,4.98,0.00,30.0,28.9,00.0,38.9,31.7,20.7,0019.68,0009.99
2021-08-15 11:48:00,,0831.3,5.00,0.00,29.9,27.4,00.0,38.9,31.3,20.4,0019.11,0009.96
2021-08-15 11:49:00,,0831.3,5.00,0.00,29.7,26.3,00.0,38.9,31.0,20.3,0018.53,0009.95
2021-08-15 11:50:00,,0831.2,5.01,0.00,29.6,26.4,00.0,38.9,31.1,19.9,0018.25,0009.88
2021-08-15 11:51:00,,0831.2,5.01,0.00,29.6,26.8,00.0,38.8,31.1,19.7,0017.43,0009.80
2021-08-15 11:52:00,,0831.2,5.00,0.00,29.6,27.2,00.0,38.8,31.2,20.0,0016.51,0009.73
2021-08-15 11:53:00,,0831.2,4.99,0.00,29.6,27.5,00.0,38.8,31.2,20.0,0016.15,0009.69
2021-08-15 11:54:00,,0831.3,5.01,0.00,29.6,27.7,00.0,38.7,31.2,19.5,0015.40,0009.57
2021-08-15 11:55:00,,0831.3,4.98,0.00,29.6,28.0,00.0,38.7,31.3,19.5,0014.79,0009.45
2021-08-15 11:56:00,,0831.3,5.01,0.00,29.6,28.1,00.0,38.7,31.3,19.6,0014.40,0009.35
2021-08-15 11:57:00,,0831.2,4.99,0.00,29.6,28.2,00.0,38.7,31.4,20.0,0014.57,0009.28
2021-08-15 11:58:00,,0831.2,5.00,0.00,29.6,28.4,00.0,38.7,31.4,19.9,0015.21,0009.29
2021-08-15 11:59:00,,0831.2,4.99,0.00,29.7,28.5,00.0,38.7,31.4,19.8,0015.03,0009.21
